Weather History for Mackinac Island, MI

Change the Weather History Date:

Tuesday, February 26, 2013

  Actual Average Record
Temperature  
Mean Temperature 29 °F -  
Max Temperature 32 °F 26 °F 49 °F (1976)
Min Temperature 26 °F 15 °F -6 °F (2014)
Degree Days  
Heating Degree Days 36    
Moisture  
Dew Point 24 °F    
Average Humidity 78    
Maximum Humidity 92    
Minimum Humidity 67    
Precipitation  
Precipitation 0.00 in - - ()
Sea Level Pressure  
Sea Level Pressure 30.03 in    
Wind  
Wind Speed 9 mph (East)    
Max Wind Speed 22 mph    
Max Gust Speed 34 mph    
Visibility 10 miles    
Events      
Averages and records for this station are not official NWS values.
T = Trace of Precipitation, MM = Missing Value Source: NWS Daily Summary

Daily Weather History Graph

Daily Weather History Graph

Search for Another Location

Airport:

Trip Planner

Search our weather history database for the weather conditions in past years. The results will help you decide how hot, cold, wet, or windy it might be!

Date:

Astronomy

Feb. 26, 2013 Rise Set
Actual Time 7:22 AM EST 6:21 PM EST
Civil Twilight 6:52 AM EST 6:51 PM EST
Nautical Twilight 6:17 AM EST 7:25 PM EST
Astronomical Twilight 5:43 AM EST 8:00 PM EST
Moon 7:44 PM EST (2/26) 7:19 AM EST (2/26)
Length of Visible Light 11h 59m
Length of Day
10h 59m
Full, 99% of the Moon is Illuminated
Feb 26
Full
Mar 4
Last Quarter
Mar 11
New
Mar 19
First Quarter
Mar 27
Full

Hourly Weather History & Observations

Time (EST) Temp. Windchill Dew Point Humidity Pressure Visibility Wind Dir Wind Speed Gust Speed Precip Events Conditions
12:14 AM 31.5 °F 26.8 °F 24.4 °F 75% 30.13 in 10.0 mi SSE 4.6 mph - N/A   Overcast
12:33 AM 31.6 °F 26.0 °F 23.9 °F 73% 30.13 in 10.0 mi SSE 5.8 mph - N/A   Overcast
12:53 AM 31.8 °F 28.5 °F 23.5 °F 71% 30.13 in 10.0 mi SSE 3.5 mph - N/A   Overcast
1:14 AM 31.6 °F 28.3 °F 23.5 °F 72% 30.15 in 10.0 mi SSE 3.5 mph - N/A   Overcast
1:33 AM 30.7 °F 27.3 °F 24.3 °F 77% 30.16 in 10.0 mi SSE 3.5 mph - N/A   Overcast
1:53 AM 31.1 °F 27.7 °F 23.7 °F 74% 30.16 in 10.0 mi SSE 3.5 mph - N/A   Overcast
2:13 AM 31.1 °F - 23.5 °F 74% 30.16 in 10.0 mi Calm Calm - N/A   Overcast
2:33 AM 30.2 °F - 23.9 °F 77% 30.16 in 10.0 mi Calm Calm - N/A   Overcast
2:54 AM 30.6 °F 27.1 °F 23.4 °F 75% 30.15 in 10.0 mi SE 3.5 mph - N/A   Overcast
3:13 AM 30.2 °F 26.7 °F 24.1 °F 78% 30.15 in 10.0 mi East 3.5 mph - N/A   Overcast
3:33 AM 29.5 °F - 23.9 °F 80% 30.15 in 10.0 mi Calm Calm - N/A   Overcast
3:54 AM 29.5 °F 23.4 °F 24.8 °F 83% 30.14 in 10.0 mi ENE 5.8 mph - N/A   Overcast
4:13 AM 28.9 °F 23.9 °F 24.8 °F 84% 30.13 in 10.0 mi East 4.6 mph - N/A   Overcast
4:33 AM 29.8 °F 24.9 °F 25.5 °F 84% 30.13 in 10.0 mi East 4.6 mph - N/A   Overcast
4:54 AM 29.8 °F 23.0 °F 25.7 °F 85% 30.13 in 10.0 mi East 6.9 mph - N/A   Overcast
5:13 AM 30.4 °F 25.6 °F 26.1 °F 84% 30.13 in 10.0 mi East 4.6 mph - N/A   Overcast
5:33 AM 29.5 °F 24.5 °F 26.6 °F 89% 30.12 in 10.0 mi East 4.6 mph - N/A   Overcast
5:54 AM 28.9 °F 23.9 °F 26.2 °F 90% 30.12 in 10.0 mi ESE 4.6 mph - N/A   Overcast
6:13 AM 27.7 °F 22.4 °F 24.8 °F 89% 30.12 in 10.0 mi ESE 4.6 mph - N/A   Mostly Cloudy
6:33 AM 26.4 °F 20.9 °F 23.9 °F 90% 30.11 in 10.0 mi East 4.6 mph - N/A   Scattered Clouds
6:53 AM 26.8 °F 21.4 °F 23.9 °F 89% 30.11 in 10.0 mi East 4.6 mph - N/A   Mostly Cloudy
7:13 AM 26.2 °F 19.6 °F 23.5 °F 90% 30.11 in 10.0 mi East 5.8 mph - N/A   Mostly Cloudy
7:34 AM 27.1 °F 20.7 °F 24.3 °F 89% 30.11 in 10.0 mi East 5.8 mph - N/A   Scattered Clouds
7:53 AM 28.0 °F 20.8 °F 25.9 °F 92% 30.11 in 10.0 mi ENE 6.9 mph - N/A   Scattered Clouds
8:13 AM 28.9 °F 21.1 °F 27.0 °F 92% 30.10 in 10.0 mi East 8.1 mph - N/A   Overcast
8:34 AM 29.3 °F 23.2 °F 27.1 °F 92% 30.12 in 10.0 mi ENE 5.8 mph - N/A   Overcast
8:53 AM 29.3 °F 21.5 °F 27.1 °F 92% 30.11 in 10.0 mi NE 8.1 mph - N/A   Overcast
9:34 AM 29.8 °F 22.2 °F 27.9 °F 92% 30.12 in 10.0 mi ENE 8.1 mph - N/A   Overcast
9:53 AM 30.2 °F 21.3 °F 28.2 °F 92% 30.11 in 10.0 mi ENE 10.4 mph 16.1 mph N/A   Overcast
10:13 AM 30.2 °F 23.4 °F 28.2 °F 92% 30.11 in 10.0 mi East 6.9 mph - N/A   Overcast
10:34 AM 30.7 °F 21.4 °F 28.4 °F 91% 30.10 in 10.0 mi ENE 11.5 mph 16.1 mph N/A   Overcast
10:53 AM 31.5 °F 24.9 °F 28.4 °F 88% 30.09 in 10.0 mi East 6.9 mph 20.7 mph N/A   Overcast
11:13 AM 32.0 °F 22.5 °F 27.9 °F 85% 30.08 in 10.0 mi East 12.7 mph 19.6 mph N/A   Overcast
11:34 AM 32.0 °F 23.0 °F 27.1 °F 82% 30.07 in 10.0 mi East 11.5 mph 19.6 mph N/A   Overcast
11:53 AM 32.0 °F 24.2 °F 26.6 °F 80% 30.07 in 10.0 mi East 9.2 mph 21.9 mph N/A   Overcast
12:13 PM 32.0 °F 23.6 °F 26.2 °F 79% 30.06 in 10.0 mi East 10.4 mph 19.6 mph N/A   Overcast
12:34 PM 32.0 °F 22.5 °F 23.7 °F 71% 30.04 in 10.0 mi East 12.7 mph 26.5 mph N/A   Overcast
12:53 PM 32.0 °F 21.2 °F 22.6 °F 68% 30.02 in 10.0 mi East 16.1 mph 26.5 mph N/A   Overcast
1:13 PM 32.0 °F 21.6 °F 22.1 °F 67% 30.02 in 10.0 mi East 15.0 mph 24.2 mph N/A   Overcast
1:34 PM 32.0 °F 22.1 °F 22.6 °F 68% 30.01 in 10.0 mi ENE 13.8 mph 24.2 mph N/A   Overcast
1:53 PM 32.0 °F 21.6 °F 23.4 °F 70% 30.00 in 10.0 mi ENE 15.0 mph 25.3 mph N/A   Overcast
2:13 PM 32.0 °F 21.6 °F 22.5 °F 68% 29.99 in 10.0 mi ENE 15.0 mph 25.3 mph N/A   Overcast
2:34 PM 31.5 °F 20.1 °F 22.1 °F 68% 29.98 in 10.0 mi ENE 17.3 mph 27.6 mph N/A   Overcast
2:53 PM 31.3 °F 20.3 °F 22.1 °F 69% 29.98 in 10.0 mi ENE 16.1 mph 27.6 mph N/A   Overcast
3:14 PM 31.1 °F 19.3 °F 21.7 °F 68% 29.98 in 10.0 mi ENE 18.4 mph 26.5 mph N/A   Overcast
3:33 PM 31.1 °F 20.5 °F 21.7 °F 68% 29.97 in 10.0 mi ENE 15.0 mph 26.5 mph N/A   Overcast
3:53 PM 30.7 °F 18.8 °F 21.9 °F 70% 29.97 in 10.0 mi ENE 18.4 mph 26.5 mph N/A   Overcast
4:14 PM 30.4 °F 18.7 °F 21.9 °F 71% 29.96 in 10.0 mi ENE 17.3 mph 28.8 mph N/A   Overcast
4:34 PM 30.2 °F 18.1 °F 21.7 °F 71% 29.96 in 10.0 mi ENE 18.4 mph 31.1 mph N/A   Overcast
5:14 PM 30.6 °F 18.2 °F 22.1 °F 71% 29.95 in 10.0 mi ENE 19.6 mph 27.6 mph N/A   Overcast
5:33 PM 30.2 °F 18.5 °F 22.5 °F 73% 29.95 in 10.0 mi ENE 17.3 mph 34.5 mph N/A   Overcast
5:53 PM 30.2 °F 17.1 °F 21.7 °F 71% 29.94 in 10.0 mi ENE 21.9 mph 28.8 mph N/A   Overcast
6:14 PM 30.0 °F 19.1 °F 21.9 °F 72% 29.94 in 10.0 mi ENE 15.0 mph 25.3 mph N/A   Scattered Clouds
6:33 PM 29.8 °F 17.7 °F 22.1 °F 73% 29.94 in 10.0 mi ENE 18.4 mph 25.3 mph N/A   Clear
6:53 PM 29.8 °F 18.4 °F 22.1 °F 73% 29.94 in 10.0 mi ENE 16.1 mph 25.3 mph N/A   Clear
7:14 PM 29.7 °F 17.8 °F 22.5 °F 75% 29.94 in 10.0 mi ENE 17.3 mph 24.2 mph N/A   Clear
7:33 PM 29.8 °F 17.0 °F 22.1 °F 73% 29.95 in 10.0 mi ENE 20.7 mph 25.3 mph N/A   Clear
7:53 PM 29.8 °F 18.4 °F 22.1 °F 73% 29.94 in 10.0 mi ENE 16.1 mph 25.3 mph N/A   Clear
8:14 PM 29.7 °F 16.7 °F 22.1 °F 73% 29.93 in 10.0 mi ENE 20.7 mph 28.8 mph N/A   Clear
8:33 PM 29.3 °F 17.0 °F 22.3 °F 75% 29.92 in 10.0 mi ENE 18.4 mph 27.6 mph N/A   Clear
8:53 PM 29.3 °F 17.3 °F 22.6 °F 76% 29.91 in 10.0 mi NE 17.3 mph 26.5 mph N/A   Clear
9:14 PM 29.1 °F 16.0 °F 22.5 °F 76% 29.89 in 10.0 mi ENE 20.7 mph 26.5 mph N/A   Clear
9:33 PM 29.3 °F 17.3 °F 22.6 °F 76% 29.88 in 10.0 mi ENE 17.3 mph 26.5 mph N/A   Clear
9:53 PM 29.5 °F 16.8 °F 22.6 °F 76% 29.87 in 10.0 mi ENE 19.6 mph 28.8 mph N/A   Clear
10:14 PM 29.8 °F 17.0 °F 23.0 °F 76% 29.86 in 10.0 mi NE 20.7 mph 28.8 mph N/A   Clear
10:33 PM 30.2 °F 18.1 °F 23.0 °F 75% 29.85 in 10.0 mi ENE 18.4 mph 26.5 mph N/A   Clear
10:53 PM 30.6 °F 18.2 °F 23.4 °F 75% 29.84 in 10.0 mi ENE 19.6 mph 29.9 mph N/A   Clear
11:14 PM 31.1 °F 19.3 °F 23.9 °F 75% 29.83 in 10.0 mi ENE 18.4 mph 29.9 mph N/A   Clear
11:33 PM 31.5 °F 19.1 °F 23.7 °F 73% 29.82 in 10.0 mi ENE 20.7 mph 29.9 mph N/A   Clear
11:53 PM 31.3 °F 19.9 °F 23.9 °F 74% 29.81 in 10.0 mi ENE 17.3 mph 28.8 mph N/A   Clear